This is the latest recevied weather packets stored in our database for station/object DB0HRH-10. If no packets are shown the sender has not sent any weather packets the latest 10 day(s).
| Time | Temp. | Humidity | Pressure | Rain* | Wind** | Luminosity | Snow |
|---|---|---|---|---|---|---|---|
| 1777594633 | 9.44° C | 30% | 1028.1 hPa | - | - | - | - |
| 1777593733 | 9.44° C | 29% | 1027.9 hPa | - | - | - | - |
| 1777592832 | 9.44° C | 30% | 1028 hPa | - | - | - | - |
| 1777591932 | 9.44° C | 29% | 1028 hPa | - | - | - | - |
| 1777591032 | 10° C | 29% | 1028 hPa | - | - | - | - |
| 1777590132 | 9.44° C | 29% | 1027.9 hPa | - | - | - | - |
| 1777589232 | 9.44° C | 28% | 1028.1 hPa | - | - | - | - |
| 1777588332 | 10° C | 28% | 1028.1 hPa | - | - | - | - |
| 1777587432 | 10.56° C | 27% | 1028 hPa | - | - | - | - |
| 1777586532 | 10.56° C | 27% | 1027.9 hPa | - | - | - | - |
| 1777585632 | 10.56° C | 27% | 1027.9 hPa | - | - | - | - |
| 1777584732 | 10.56° C | 26% | 1027.8 hPa | - | - | - | - |
| 1777583832 | 11.11° C | 26% | 1027.9 hPa | - | - | - | - |
| 1777582932 | 11.67° C | 25% | 1027.8 hPa | - | - | - | - |
| 1777582032 | 11.67° C | 26% | 1027.7 hPa | - | - | - | - |
| 1777581132 | 11.67° C | 25% | 1027.6 hPa | - | - | - | - |
| 1777580232 | 11.67° C | 26% | 1027.6 hPa | - | - | - | - |
| 1777579331 | 12.22° C | 25% | 1027.4 hPa | - | - | - | - |
| 1777578431 | 12.22° C | 24% | 1027.3 hPa | - | - | - | - |
| 1777577531 | 12.78° C | 24% | 1027.2 hPa | - | - | - | - |
| 1777576631 | 12.78° C | 24% | 1027.1 hPa | - | - | - | - |
| 1777575731 | 13.33° C | 23% | 1026.7 hPa | - | - | - | - |
| 1777574831 | 13.89° C | 24% | 1026.6 hPa | - | - | - | - |
| 1777573931 | 14.44° C | 23% | 1026.6 hPa | - | - | - | - |
| 1777573031 | 15° C | 22% | 1026.4 hPa | - | - | - | - |
* Rain since midnight (hover to see other rain measurements)
** Current wind speed in m/s (hover to see current wind gust speed)